Location: Austin
(30.3000°N, 97.7500°W)
Time: 23:30:19
(UTC-05:00)

Meteor 1-31 Rocket - Pass Details

Date: 06 May 2026
Orbit: 454 x 472 km, 97.6° (Epoch: 13 May)

Event Time Altitude Azimuth Distance (km) Brightness Sun altitude
Exits shadow 21:44:52 33° 186° (S) 810 3.4 -18.7°
Maximum altitude 21:46:17 67° 259° (W) 511 2.7 -18.9°
Drops below altitude 10° 21:49:45 10° 342° (NNW) 1,622 5.9 -19.5°
Sets 21:51:48 0° 346° (NNW) 2,498 6.9 -19.9°
